| time (UTC) | temp C | wind direction | speed KPH | gust KPH | rain 1hr cm | rain 24hr cm | rain mn cm | humidity % | barometer mb |
| 20260503184704 | 16 | 178 | 1.6 | 4.8 | 0.00 | 0.00 | 0.00 | 74 | 1009.4 |
| 20260503184204 | 16 | 178 | 3.2 | 8.0 | 0.00 | 0.00 | 0.00 | 74 | 1009.3 |
| 20260503183704 | 16 | 177 | 3.2 | 9.7 | 0.00 | 0.00 | 0.00 | 74 | 1009.2 |
| 20260503183205 | 17 | 167 | 3.2 | 11.3 | 0.00 | 0.00 | 0.00 | 74 | 1009.3 |
| 20260503181704 | 17 | 157 | 1.6 | 11.3 | 0.00 | 0.00 | 0.00 | 74 | 1009.1 |
| 20260503181203 | 17 | 165 | 4.8 | 11.3 | 0.00 | 0.00 | 0.00 | 73 | 1009.2 |
| 20260503180703 | 17 | 190 | 1.6 | 4.8 | 0.00 | 0.00 | 0.00 | 73 | 1009.1 |
| 20260503180204 | 17 | 192 | 3.2 | 4.8 | 0.00 | 0.00 | 0.00 | 72 | 1009.0 |
| 20260503174704 | 17 | 191 | 0.0 | 4.8 | 0.00 | 0.00 | 0.00 | 70 | 1008.9 |
| 20260503174203 | 18 | 264 | 0.0 | 1.6 | 0.00 | 0.00 | 0.00 | 70 | 1008.8 |
| 20260503173704 | 18 | 264 | 0.0 | 3.2 | 0.00 | 0.00 | 0.00 | 68 | 1008.8 |
| 20260503173204 | 18 | 289 | 1.6 | 8.0 | 0.00 | 0.00 | 0.00 | 67 | 1008.8 |
| 20260503171704 | 19 | 184 | 3.2 | 11.3 | 0.00 | 0.00 | 0.00 | 67 | 1008.9 |
| 20260503171204 | 19 | 188 | 3.2 | 8.0 | 0.00 | 0.00 | 0.00 | 68 | 1008.9 |
| 20260503170704 | 18 | 235 | 1.6 | 4.8 | 0.00 | 0.00 | 0.00 | 69 | 1008.8 |
| 20260503170204 | 18 | 234 | 1.6 | 12.9 | 0.00 | 0.00 | 0.00 | 69 | 1008.9 |
| 20260503160205 | 18 | 218 | 3.2 | 14.5 | 0.00 | 0.13 | 0.00 | 67 | 1009.2 |
| 20260503150704 | 19 | 289 | 1.6 | 12.9 | 0.00 | 0.20 | 0.00 | 66 | 1009.2 |
| 20260503150203 | 20 | 186 | 4.8 | 14.5 | 0.00 | 0.20 | 0.00 | 68 | 1009.2 |
| 20260503140204 | 17 | 235 | 4.8 | 11.3 | 0.00 | 0.20 | 0.00 | 72 | 1009.4 |
| 20260503131204 | 17 | 248 | 4.8 | 12.9 | 0.00 | 0.20 | 0.00 | 70 | 1009.6 |
| 20260503130704 | 17 | 175 | 3.2 | 9.7 | 0.00 | 0.20 | 0.00 | 72 | 1009.6 |
| 20260503130204 | 17 | 234 | 1.6 | 9.7 | 0.00 | 0.20 | 0.00 | 72 | 1009.6 |
| 20260503120203 | 16 | 244 | 1.6 | 12.9 | 0.00 | 0.20 | 0.00 | 72 | 1009.6 |
| 20260503110704 | 15 | 193 | 1.6 | 12.9 | 0.00 | 0.20 | 0.00 | 79 | 1009.9 |
| 20260503110204 | 15 | 226 | 1.6 | 4.8 | 0.00 | 0.20 | 0.00 | 79 | 1009.8 |
| 20260503100204 | 15 | 202 | 1.6 | 9.7 | 0.00 | 0.20 | 0.00 | 82 | 1009.8 |
| 20260503090204 | 13 | 244 | 1.6 | 11.3 | 0.00 | 0.20 | 0.00 | 84 | 1010.1 |
| 20260503080704 | 12 | 309 | 4.8 | 8.0 | 0.00 | 0.20 | 0.00 | 89 | 1010.0 |
| 20260503080204 | 12 | 247 | 1.6 | 11.3 | 0.00 | 0.20 | 0.00 | 90 | 1010.1 |
| 20260503071704 | 12 | 285 | 1.6 | 9.7 | 0.00 | 0.20 | 0.00 | 93 | 1009.8 |
| 20260503071205 | 12 | 271 | 3.2 | 8.0 | 0.00 | 0.20 | 0.00 | 93 | 1009.9 |
| 20260503070704 | 12 | 247 | 3.2 | 8.0 | 0.00 | 0.20 | 0.00 | 94 | 1009.8 |
| 20260503070203 | 12 | 300 | 1.6 | 9.7 | 0.00 | 0.20 | 0.00 | 95 | 1009.7 |
| 20260503060204 | 11 | 178 | 1.6 | 4.8 | 0.00 | 0.20 | 0.00 | 96 | 1009.6 |
| 20260503054704 | 11 | 178 | 1.6 | 3.2 | 0.00 | 0.20 | 0.00 | 96 | 1009.5 |
| 20260503054203 | 11 | 178 | 0.0 | 3.2 | 0.00 | 0.20 | 0.00 | 96 | 1009.4 |
| 20260503053703 | 11 | 178 | 1.6 | 3.2 | 0.00 | 0.20 | 0.00 | 96 | 1009.4 |
| 20260503053205 | 11 | 178 | 0.0 | 1.6 | 0.00 | 0.20 | 0.00 | 96 | 1009.5 |
| 20260503051704 | 11 | 178 | 1.6 | 3.2 | 0.00 | 0.20 | 0.00 | 96 | 1009.4 |
| 20260503051204 | 11 | 178 | 0.0 | 3.2 | 0.00 | 0.20 | 0.00 | 96 | 1009.4 |
| 20260503050704 | 11 | 178 | 1.6 | 4.8 | 0.00 | 0.20 | 0.00 | 96 | 1009.3 |
| 20260503050204 | 11 | 178 | 4.8 | 8.0 | 0.00 | 0.20 | 0.00 | 96 | 1009.3 |
| 20260503044706 | 11 | 188 | 3.2 | 4.8 | 0.00 | 0.20 | 0.00 | 96 | 1009.3 |
| 20260503044204 | 11 | 188 | 1.6 | 8.0 | 0.00 | 0.20 | 0.00 | 96 | 1009.3 |
| 20260503043705 | 11 | 189 | 1.6 | 3.2 | 0.00 | 0.20 | 0.00 | 96 | 1009.3 |
| 20260503043204 | 11 | 189 | 3.2 | 8.0 | 0.00 | 0.20 | 0.00 | 96 | 1009.3 |
| 20260503041706 | 11 | 229 | 1.6 | 4.8 | 0.00 | 0.20 | 0.00 | 96 | 1009.3 |
| 20260503041203 | 11 | 236 | 0.0 | 1.6 | 0.00 | 0.20 | 0.00 | 96 | 1009.3 |
| 20260503040704 | 11 | 236 | 0.0 | 4.8 | 0.00 | 0.20 | 0.00 | 96 | 1009.2 |
| 20260503034703 | 11 | 165 | 0.0 | 0.0 | 0.00 | 0.20 | 0.00 | 95 | 1009.5 |
| 20260503033703 | 11 | 165 | 0.0 | 0.0 | 0.00 | 0.20 | 0.00 | 95 | 1009.4 |
| 20260503033204 | 11 | 165 | 0.0 | 1.6 | 0.00 | 0.20 | 0.00 | 95 | 1009.4 |
| 20260503031705 | 11 | 165 | 0.0 | 1.6 | 0.00 | 0.20 | 0.00 | 95 | 1009.5 |
| 20260503030704 | 11 | 165 | 1.6 | 4.8 | 0.00 | 0.20 | 0.00 | 95 | 1009.4 |
| 20260503030204 | 11 | 165 | 1.6 | 4.8 | 0.00 | 0.20 | 0.00 | 95 | 1009.4 |
| 20260503024704 | 11 | 165 | 0.0 | 1.6 | 0.00 | 0.20 | 0.00 | 95 | 1009.4 |
| 20260503024203 | 11 | 165 | 0.0 | 1.6 | 0.00 | 0.20 | 0.00 | 95 | 1009.4 |
| 20260503023705 | 11 | 165 | 0.0 | 1.6 | 0.00 | 0.20 | 0.00 | 95 | 1009.4 |
| 20260503023204 | 11 | 165 | 0.0 | 8.0 | 0.00 | 0.20 | 0.00 | 95 | 1009.4 |
| 20260503021704 | 12 | 165 | 1.6 | 3.2 | 0.00 | 0.20 | 0.00 | 95 | 1009.5 |
| 20260503021204 | 12 | 165 | 1.6 | 3.2 | 0.00 | 0.20 | 0.00 | 95 | 1009.5 |
| 20260503020704 | 12 | 165 | 1.6 | 3.2 | 0.00 | 0.20 | 0.00 | 95 | 1009.5 |
| 20260503020204 | 12 | 165 | 1.6 | 8.0 | 0.00 | 0.20 | 0.00 | 95 | 1009.5 |
| 20260503014704 | 12 | 165 | 3.2 | 8.0 | 0.00 | 0.20 | 0.00 | 95 | 1009.8 |
| 20260503014203 | 12 | 165 | 1.6 | 3.2 | 0.00 | 0.20 | 0.00 | 95 | 1009.8 |
| 20260503013705 | 12 | 165 | 1.6 | 8.0 | 0.00 | 0.20 | 0.00 | 96 | 1009.9 |
| 20260503011204 | 12 | 171 | 1.6 | 3.2 | 0.00 | 0.20 | 0.00 | 95 | 1010.0 |
| 20260503010704 | 12 | 171 | 1.6 | 3.2 | 0.00 | 0.20 | 0.00 | 95 | 1010.1 |
| 20260503010206 | 12 | 171 | 3.2 | 8.0 | 0.00 | 0.20 | 0.00 | 95 | 1010.1 |
| 20260503004203 | 12 | 171 | 3.2 | 8.0 | 0.00 | 0.20 | 0.00 | 95 | 1010.4 |
| 20260503001703 | 12 | 172 | 1.6 | 4.8 | 0.00 | 0.20 | 0.00 | 96 | 1010.5 |
| 20260503001204 | 12 | 169 | 1.6 | 3.2 | 0.00 | 0.20 | 0.00 | 95 | 1010.6 |
| 20260503000704 | 12 | 169 | 1.6 | 3.2 | 0.00 | 0.20 | 0.00 | 95 | 1010.6 |
| 20260503000204 | 12 | 169 | 1.6 | 12.9 | 0.00 | 0.20 | 0.00 | 95 | 1010.7 |
| 20260502234704 | 12 | 168 | 3.2 | 9.7 | 0.00 | 0.20 | 0.00 | 95 | 1010.7 |
| 20260502233203 | 12 | 155 | 4.8 | 8.0 | 0.00 | 0.20 | 0.00 | 95 | 1010.7 |
| 20260502231703 | 12 | 148 | 1.6 | 8.0 | 0.00 | 0.20 | 0.00 | 95 | 1010.7 |
| 20260502231206 | 12 | 166 | 3.2 | 8.0 | 0.00 | 0.20 | 0.00 | 95 | 1010.7 |
| 20260502230704 | 12 | 166 | 3.2 | 11.3 | 0.00 | 0.20 | 0.00 | 95 | 1010.7 |
| 20260502230204 | 12 | 165 | 3.2 | 11.3 | 0.00 | 0.20 | 0.00 | 95 | 1010.7 |
| 20260502224704 | 12 | 167 | 3.2 | 9.7 | 0.00 | 0.20 | 0.20 | 96 | 1010.7 |
| 20260502224204 | 12 | 167 | 3.2 | 8.0 | 0.00 | 0.20 | 0.20 | 96 | 1010.7 |
| 20260502223703 | 12 | 167 | 3.2 | 4.8 | 0.00 | 0.20 | 0.20 | 96 | 1010.7 |
| 20260502223204 | 12 | 167 | 3.2 | 9.7 | 0.00 | 0.20 | 0.20 | 96 | 1010.7 |
| 20260502221704 | 12 | 168 | 1.6 | 8.0 | 0.00 | 0.20 | 0.20 | 95 | 1010.7 |
| 20260502221203 | 12 | 168 | 3.2 | 3.2 | 0.00 | 0.20 | 0.20 | 95 | 1010.8 |
| 20260502214704 | 12 | 165 | 8.0 | 11.3 | 0.00 | 0.20 | 0.20 | 95 | 1010.8 |
| 20260502214203 | 12 | 165 | 3.2 | 8.0 | 0.00 | 0.20 | 0.20 | 95 | 1010.8 |
| 20260502211703 | 12 | 166 | 1.6 | 9.7 | 0.00 | 0.20 | 0.20 | 95 | 1010.9 |
| 20260502210704 | 12 | 167 | 1.6 | 4.8 | 0.00 | 0.20 | 0.20 | 94 | 1010.9 |
| 20260502210204 | 12 | 167 | 0.0 | 9.7 | 0.00 | 0.20 | 0.20 | 94 | 1011.0 |
| 20260502204705 | 13 | 167 | 0.0 | 8.0 | 0.00 | 0.20 | 0.20 | 94 | 1011.1 |
| 20260502204203 | 13 | 167 | 0.0 | 9.7 | 0.00 | 0.20 | 0.20 | 94 | 1011.1 |
| 20260502203704 | 13 | 167 | 0.0 | 4.8 | 0.00 | 0.20 | 0.20 | 94 | 1011.2 |
| 20260502203203 | 13 | 168 | 3.2 | 9.7 | 0.00 | 0.20 | 0.20 | 94 | 1011.4 |
| 20260502201704 | 13 | 170 | 1.6 | 8.0 | 0.00 | 0.20 | 0.20 | 94 | 1011.3 |
| 20260502201203 | 13 | 170 | 3.2 | 8.0 | 0.00 | 0.20 | 0.20 | 94 | 1011.2 |
| 20260502200704 | 13 | 172 | 1.6 | 8.0 | 0.00 | 0.20 | 0.20 | 94 | 1011.2 |
| 20260502200203 | 13 | 172 | 0.0 | 0.0 | 0.00 | 0.20 | 0.20 | 94 | 1011.2 |
| 20260502194704 | 13 | 172 | 0.0 | 3.2 | 0.00 | 0.20 | 0.20 | 93 | 1011.2 |
| 20260502194203 | 13 | 171 | 0.0 | 0.0 | 0.00 | 0.20 | 0.20 | 93 | 1011.1 |
| 20260502193704 | 13 | 171 | 0.0 | 1.6 | 0.00 | 0.20 | 0.20 | 94 | 1011.0 |
| 20260502193204 | 13 | 171 | 0.0 | 11.3 | 0.00 | 0.20 | 0.20 | 94 | 1011.0 |
| 20260502190704 | 13 | 183 | 1.6 | 3.2 | 0.00 | 0.20 | 0.20 | 93 | 1011.1 |
| 20260502190203 | 13 | 188 | 1.6 | 11.3 | 0.00 | 0.20 | 0.20 | 93 | 1011.3 |